Weather in Bet'ki

Russia / Republic of Tatarstan     55°40′30″N   52°08′23″E
temp.,
°C
wind,
m/s
gust,
m/s
humid.,
%
clouds,
%
prec.,
mm/h
press.,
hPa
HPBL,
m
7 august, sun
sun700:00+19nne007524 0.0 102111
03:00+18nne11785 0.0 102111
06:00+20nne11735 0.0 102294
09:00+26ene22539 0.0 1021606
12:00+29ne1242100 0.0 10201962
15:00+26ne2250100 0.0 1019216
18:00+24wsw3466100 0.0 101986
21:00+20nnw117293 0.0 101911
8 august, mon
mon800:00+20n117275 0.0 102011
03:00+21nnw116798 0.0 102011
06:00+22n006770 0.0 102061
09:00+27nne115193 0.0 1020633
12:00+29n014080 0.0 10202273
15:00+28nw114763 0.0 1019512
18:00+24n246470 0.0 101988
21:00+22nnw226870 0.0 102015
9 august, tue
tue900:00+20n117472 0.0 102012
03:00+19nne117453 0.0 102011
06:00+21nnw117099 0.0 102072
09:00+26nne225599 0.0 1020545
12:00+29ene224260 0.0 10191827
15:00+29ene1241100 0.0 10191918
18:00+26e225668 0.0 101816
21:00+21ese1172100 0.1 101911
10 august, wed
wed1000:00+20s1172100 0.0 101911
03:00+19ene1181100 0.8 101911
06:00+21ssw1175100 0.6 101968
09:00+25sw126242 0.6 1019436
12:00+29sw3346100 0.0 10181543
15:00+29wsw344483 0.0 10172105
18:00+26wsw3358100 0.0 101744
21:00+23ssw226266 0.0 101714
11 august, thu
thu1100:00+20ssw227292 0.1 101613
03:00+20sw1172100 0.1 101611
06:00+19wnw2384100 1.9 101793
09:00+23wsw3467100 2.2 1017569
12:00+26nw3359100 0.0 10161113
15:00+21wnw2475100 2.2 1016363
18:00+20w3677100 0.0 1016337
21:00+16nw4108913 0.0 1017298